RH
36 40 41 41 44 44 45 45 44 46 39 31 29 33 40 46 48 51 52 52 57 63 64 62 63 66 69 66 70 71 83 71 76 78 71 69 66 66
39 42 42 43 44 46 48 48 47 46 47 38 37 43 47 50 50 51 51 56 59 60 58 60 64 67 67 69 72 73 78 75 72 72 71 71 70 69
44 45 47 48 48 44 43 45 47 47 47 51 49 50 54 50 50 54 58 59 53 47 52 60 63 67 69 72 70 70 71 72 76 78 79 76 70 72
47 49 48 46 46 46 47 48 51 54 54 59 60 60 52 54 60 60 49 47 51 51 55 62 65 66 69 72 71 73 72 75 75 81 79 73 75 73
51 52 52 49 48 48 52 57 57 60 70 74 64 60 58 70 59 54 55 51 52 54 56 60 63 66 69 68 67 68 69 70 70 71 70 73 74 76
54 57 55 52 53 56 59 56 57 61 55 58 64 71 80 58 58 52 53 56 58 62 62 63 61 62 61 62 66 70 72 73 73 73 73 73 75 75
52 52 51 56 69 74 68 69 63 67 73 80 89 72 67 54 50 56 62 65 70 63 63 60 57 65 68 64 64 65 66 69 72 77 80 82 86 87
50 50 52 56 60 66 68 68 78 88 95 92 81 68 52 53 60 66 83 80 73 63 64 70 66 66 63 62 61 64 69 72 76 78 80 82 82 81
53 54 54 57 62 62 66 66 70 88 75 66 61 57 62 64 82 95 82 84 84 78 76 72 65 63 62 62 63 69 72 76 80 80 82 86 84 83
56 58 60 60 59 63 65 85 88 63 55 58 60 65 77 92 86 79 88 88 83 72 67 76 68 67 66 68 70 74 76 78 76 76 80 90 96 96
55 57 61 60 62 66 81 94 61 56 54 59 73 82 74 71 76 90 91 86 80 72 72 69 66 74 79 78 72 63 65 70 78 77 79 83 92 98
56 56 56 63 65 79 81 66 64 56 67 91 68 61 64 67 73 76 90 94 88 84 62 80 86 82 82 63 66 76 75 73 76 78 78 83 88 99
59 55 57 61 68 69 70 68 65 76 87 70 63 66 70 72 75 82 91 98 94 91 80 91 91 90 91 88 76 76 79 79 81 83 81 82 84 95
63 62 64 70 70 72 72 73 79 81 69 67 74 79 81 87 91 94 98 99 100 100 99 100 96 96 93 88 82 73 77 84 85 88 93 98 98 99
73 69 70 70 71 68 67 78 78 67 71 81 86 87 89 94 96 96 94 97 98 99 99 100 100 98 97 94 91 88 84 85 93 92 97 100 100 100
69 71 66 65 62 65 64 66 68 71 78 90 92 92 92 93 94 95 96 94 95 91 88 91 92 98 96 93 94 92 90 95 96 99 100 100 100 100
74 65 58 56 61 62 66 70 71 75 85 89 95 94 92 92 93 94 95 95 93 90 89 89 90 94 97 98 96 90 89 94 98 99 99 98 99 100
74 61 58 65 67 70 76 79 84 88 90 95 96 95 95 94 94 93 94 94 93 88 87 88 89 90 82 74 70 86 94 92 96 99 99 98 96 99
66 67 72 73 75 80 86 91 93 94 98 98 96 97 96 95 93 94 93 92 88 88 86 86 91 94 93 89 70 72 98 97 98 95 99 98 98 99
74 75 77 78 81 88 93 96 96 98 98 98 97 97 97 97 95 93 92 92 91 88 87 86 88 92 96 95 95 87 85 100 99 97 97 98 97 97
76 78 80 84 90 95 97 99 98 98 97 98 98 98 98 97 95 93 93 89 88 89 89 85 91 93 100 99 93 80 82 84 94 100 100 98 96 84
80 85 87 91 97 98 100 100 99 99 98 98 98 98 98 98 96 96 94 94 90 90 92 88 91 95 96 92 89 88 83 83 84 84 99 99 99 98
89 91 95 99 100 100 100 100 100 100 99 98 99 98 98 97 97 97 97 96 92 95 87 84 85 88 88 85 85 84 84 84 84 80 87 98 98 99
Wind_Speed
5 6 7 9 11 13 15 17 19 14 14 19 16 21 27 28 28 30 32 32 34 36 36 37 38 39 39 39 40 40 40 40 40 40 42 44 45 44
6 8 9 10 13 14 16 18 19 23 14 25 27 27 27 29 30 30 31 33 35 35 39 37 37 37 38 39 39 40 40 41 41 42 43 43 43 44
7 9 11 12 14 16 17 19 21 23 17 32 31 31 30 31 30 29 30 34 36 35 36 35 37 38 38 39 40 40 40 41 41 41 42 43 43 44
9 11 12 13 16 17 18 20 21 24 27 27 34 32 33 31 30 31 32 33 33 33 34 35 38 38 37 38 38 39 40 40 41 41 42 44 44 44
11 12 14 16 17 18 20 21 23 25 26 28 32 33 33 29 31 35 30 30 30 32 34 33 37 37 36 37 39 40 41 41 41 42 42 42 44 44
13 14 16 17 18 20 22 24 25 26 28 27 29 33 27 32 32 28 28 30 31 32 36 33 34 34 35 40 40 41 40 39 39 40 41 42 42 42
15 16 17 18 20 21 22 24 27 27 26 26 26 27 31 28 27 29 28 33 32 32 34 29 31 36 36 37 36 36 35 36 37 39 40 40 41 41
17 18 18 19 19 21 23 25 26 28 29 23 27 25 31 30 31 29 30 27 15 28 28 39 31 36 35 34 36 37 39 39 38 38 38 39 40 41
18 19 20 19 21 22 23 27 26 27 30 30 29 30 30 31 33 32 31 30 28 35 31 35 32 34 34 36 37 38 40 39 37 36 37 38 39 40
18 19 20 21 22 24 28 26 26 29 27 26 28 32 32 32 31 33 31 35 33 31 28 15 34 33 33 36 41 37 34 32 32 34 37 38 39 40
18 20 19 23 22 27 28 28 30 30 26 24 29 31 32 33 28 27 25 23 18 26 31 23 24 33 36 38 29 24 29 38 35 35 36 37 38 38
20 21 21 21 26 26 29 29 29 28 28 31 29 27 24 25 23 21 22 21 21 14 18 19 26 22 8 23 24 36 29 31 34 34 35 35 34 33
22 23 22 24 28 30 29 28 25 29 29 28 25 24 23 23 23 22 22 23 25 23 37 27 22 27 17 20 31 31 32 29 34 33 32 32 33 33
23 24 26 28 30 29 27 22 25 26 22 22 23 24 24 26 25 27 28 29 30 33 40 34 23 27 25 17 15 27 38 37 31 32 30 32 35 35
21 26 29 28 27 23 20 23 21 18 20 21 22 24 25 28 30 27 28 27 31 31 32 31 30 32 28 24 18 31 30 28 32 29 36 31 31 29
24 26 26 23 21 21 20 18 18 19 20 21 22 26 27 26 26 24 25 27 26 30 29 26 25 28 29 29 28 28 29 13 35 33 35 33 28 25
27 23 20 19 20 19 19 19 20 21 21 22 23 25 26 25 26 25 24 25 21 22 27 28 26 27 28 31 25 26 26 27 29 33 32 25 24 18
21 17 17 18 19 20 21 22 22 23 22 24 24 23 24 24 25 26 24 21 20 22 23 26 28 28 23 23 18 20 22 23 30 31 29 19 13 14
14 15 17 18 19 20 21 22 25 26 26 23 24 25 24 24 25 23 23 22 21 21 23 25 24 18 11 12 20 15 18 26 25 24 25 24 14 17
14 16 18 19 20 21 22 23 26 26 25 24 25 25 24 22 23 22 22 21 21 23 23 22 21 20 11 11 11 31 26 22 23 20 21 21 22 15
17 18 18 20 21 23 24 25 25 26 27 26 25 24 24 22 23 23 23 24 24 20 14 19 25 29 26 22 11 14 25 25 25 22 21 17 10 10
18 19 20 21 23 24 25 25 26 27 26 24 25 25 25 23 23 23 22 21 20 19 20 23 27 25 19 13 10 14 22 27 25 22 19 23 13 6
19 20 23 24 25 25 25 25 26 27 26 25 26 26 25 25 25 24 23 22 20 19 18 20 22 20 17 16 17 16 19 22 21 20 19 21 22 21
Wind_Direction
298 297 296 296 294 293 292 292 296 303 300 305 300 302 304 303 302 301 300 298 297 297 297 296 294 293 293 291 289 288 287 283 281 278 276 273 270 269
301 301 303 302 299 296 293 291 289 289 292 299 302 304 304 303 300 300 299 298 297 295 296 294 294 293 291 291 290 288 286 283 280 277 275 272 269 267
303 305 303 304 301 300 297 294 291 290 289 298 301 305 303 301 303 303 301 297 294 297 296 298 295 294 292 292 289 286 284 282 281 278 277 275 271 268
308 306 306 307 304 303 300 296 294 293 293 299 300 301 304 304 305 301 303 300 298 298 298 298 296 295 294 291 289 286 284 282 280 279 276 273 271 269
304 305 306 306 303 303 300 297 296 293 288 286 295 300 301 306 305 309 303 302 302 301 300 298 296 295 294 292 289 287 284 283 282 280 277 274 271 269
302 300 302 300 300 302 300 300 300 296 297 296 293 297 301 311 305 305 309 306 304 305 301 298 296 295 294 291 289 286 284 282 281 279 276 274 271 268
300 300 299 297 296 297 299 299 302 301 297 295 294 308 305 306 311 312 304 305 303 306 302 299 304 297 292 292 289 288 286 284 282 280 277 274 271 268
303 304 303 303 302 301 300 300 298 293 297 304 303 295 303 308 308 306 303 309 304 311 309 298 301 295 292 291 292 292 290 287 284 281 278 275 271 267
304 306 308 306 305 304 303 302 302 300 298 296 297 298 299 303 303 301 307 300 297 298 300 293 299 294 295 294 295 295 292 289 287 284 280 276 272 269
306 307 305 306 308 309 310 307 306 303 302 300 296 296 296 295 299 301 300 298 295 296 301 291 301 295 301 298 297 295 292 292 291 288 284 280 276 271
308 307 305 306 309 314 313 310 308 306 305 301 298 296 297 298 298 300 296 302 297 301 305 290 299 305 303 296 295 296 298 297 295 292 291 287 282 275
314 312 310 309 314 313 314 313 308 307 309 306 305 304 301 302 301 296 295 293 295 305 304 310 306 312 306 297 299 299 298 298 299 299 297 293 286 279
314 313 312 315 314 315 312 308 303 305 308 307 307 307 307 305 304 301 296 288 288 282 286 306 300 299 285 298 303 300 300 301 304 301 298 292 290 282
313 312 313 313 314 312 310 307 308 309 305 305 306 302 304 305 303 301 297 292 284 277 287 290 280 286 289 292 293 300 307 306 303 300 294 290 285 280
310 311 312 313 313 314 312 311 312 310 307 305 301 300 301 300 302 302 302 298 294 291 289 287 279 282 281 282 285 294 304 308 305 309 311 302 296 286
318 315 313 312 312 311 315 316 315 311 308 305 303 301 303 306 304 305 303 304 301 302 305 298 291 287 286 285 288 292 298 299 309 313 313 309 305 300
318 313 313 316 316 317 318 316 315 316 313 309 307 305 306 307 305 308 304 302 299 302 307 312 311 303 293 285 289 288 295 304 315 318 319 316 317 317
316 312 312 314 315 318 317 315 315 313 311 310 305 303 303 304 305 307 306 302 301 305 308 313 317 320 317 315 285 285 295 308 320 323 328 326 320 339
318 315 311 314 314 313 311 310 308 310 310 307 305 303 302 303 307 304 306 305 307 307 309 315 315 315 316 314 308 303 295 317 321 327 335 335 318 323
318 313 313 313 313 310 309 307 307 309 309 307 304 304 303 301 303 303 304 304 306 308 312 315 314 317 312 306 303 301 321 318 327 324 332 334 332 333
318 315 313 312 310 308 305 304 304 303 304 303 302 301 302 302 299 300 301 304 307 307 307 313 309 315 309 305 295 310 321 332 337 327 330 333 333 337
315 314 312 309 307 305 303 304 304 304 304 303 302 301 301 300 296 297 299 301 303 305 304 310 313 318 316 314 309 313 322 332 343 345 349 358 350 335
314 312 309 308 306 305 305 304 302 301 302 301 300 299 299 297 298 297 297 298 302 305 319 318 320 323 318 318 315 316 323 338 341 345 347 354 360 2